,,PA_Meas_PMT16A,,PR_Meas_QMR101_102,,RH_Meas_QMH101,,SR_Meas_QMS101,,TA_Meas_QMH101,,GenWind,,GenWind,
time,status,PA,status,PR,status,RH,status,SR,status,TA,status,DirAvg,status,SpdAvg,
2014-04-20, 00:00:04,VALID,917.798,VALID,0,VALID,93.3716,VALID,0,VALID,19.8768,VALID,132,VALID,0.739062,
2014-04-20, 00:01:04,VALID,917.758,VALID,0,VALID,93.4021,VALID,0,VALID,19.9008,VALID,132,VALID,0.819531,
2014-04-20, 00:02:04,VALID,917.793,VALID,0,VALID,93.5393,VALID,0,VALID,19.8198,VALID,132,VALID,0.743359,
2014-04-20, 00:03:04,VALID,917.78,VALID,0,VALID,93.5851,VALID,0.107441,VALID,19.8003,VALID,119,VALID,1.11992,
2014-04-20, 00:04:04,VALID,917.761,VALID,0,VALID,93.6537,VALID,0,VALID,19.7613,VALID,119,VALID,1.20547,
2014-04-20, 00:05:04,VALID,917.788,VALID,0,VALID,93.5469,VALID,0,VALID,19.7223,VALID,119,VALID,1.10312,
2014-04-20, 00:06:04,VALID,917.766,VALID,0,VALID,93.364,VALID,0.107441,VALID,19.7418,VALID,119,VALID,1.18438,
2014-04-20, 00:07:04,VALID,917.751,VALID,0,VALID,93.0743,VALID,0,VALID,19.8003,VALID,119,VALID,1.18867,
2014-04-20, 00:08:04,VALID,917.707,VALID,0,VALID,92.7389,VALID,0.107441,VALID,19.8183,VALID,122,VALID,1.08242,
2014-04-20, 00:09:04,VALID,917.663,VALID,0,VALID,92.5406,VALID,0,VALID,19.8003,VALID,132,VALID,1.16641,
2014-04-20, 00:10:04,VALID,917.656,VALID,0,VALID,92.411,VALID,0,VALID,19.8003,VALID,132,VALID,1.37266,
2014-04-20, 00:11:04,VALID,917.642,VALID,0,VALID,92.3958,VALID,0,VALID,19.7613,VALID,125,VALID,0.904688,
2014-04-20, 00:12:04,VALID,917.599,VALID,0,VALID,92.4492,VALID,0.107441,VALID,19.7418,VALID,132,VALID,0.587109,
2014-04-20, 00:13:04,VALID,917.614,VALID,0,VALID,92.5559,VALID,0,VALID,19.7028,VALID,129,VALID,0.824609,
2014-04-20, 00:14:04,VALID,917.586,VALID,0,VALID,92.6474,VALID,0.107441,VALID,19.6638,VALID,132,VALID,0.823047,
2014-04-20, 00:15:04,VALID,917.605,VALID,0,VALID,92.7617,VALID,0,VALID,19.6443,VALID,132,VALID,0.881641,
2014-04-20, 00:16:04,VALID,917.532,VALID,0,VALID,92.8456,VALID,0,VALID,19.6248,VALID,132,VALID,0.923047,
2014-04-20, 00:17:04,VALID,917.57,VALID,0,VALID,92.9447,VALID,0,VALID,19.6053,VALID,132,VALID,0.857422,
2014-04-20, 00:18:04,VALID,917.527,VALID,0,VALID,93.0209,VALID,0,VALID,19.5858,VALID,132,VALID,0.634375,
2014-04-20, 00:19:04,VALID,917.517,VALID,0,VALID,93.1276,VALID,0,VALID,19.5858,VALID,132,VALID,0.597656,
2014-04-20, 00:20:04,VALID,917.502,VALID,0,VALID,93.1429,VALID,0,VALID,19.5663,VALID,132,VALID,0.976953,
2014-04-20, 00:21:04,VALID,917.441,VALID,0,VALID,93.2039,VALID,0,VALID,19.5468,VALID,132,VALID,0.809766,
2014-04-20, 00:22:05,VALID,917.385,VALID,0,VALID,93.2801,VALID,0,VALID,19.5663,VALID,132,VALID,0.961328,
2014-04-20, 00:23:05,VALID,917.396,VALID,0,VALID,93.242,VALID,0,VALID,19.5468,VALID,132,VALID,0.88125,
2014-04-20, 00:24:05,VALID,917.334,VALID,0,VALID,93.1505,VALID,0,VALID,19.5273,VALID,127,VALID,0.946094,
2014-04-20, 00:25:05,VALID,917.325,VALID,0,VALID,93.0972,VALID,0,VALID,19.5273,VALID,120,VALID,1.05391,
2014-04-20, 00:26:05,VALID,917.289,VALID,0,VALID,93.059,VALID,0,VALID,19.5273,VALID,120,VALID,1.09141,
2014-04-20, 00:27:05,VALID,917.251,VALID,0,VALID,93.0057,VALID,0,VALID,19.5468,VALID,119,VALID,1.19648,
2014-04-20, 00:28:05,VALID,917.209,VALID,0,VALID,92.8456,VALID,0,VALID,19.5678,VALID,119,VALID,1.19687,
2014-04-20, 00:29:05,VALID,917.178,VALID,0,VALID,92.7465,VALID,0,VALID,19.5678,VALID,119,VALID,1.01719,
2014-04-20, 00:30:05,VALID,917.168,VALID,0,VALID,92.7007,VALID,0,VALID,19.5678,VALID,121,VALID,0.868359,
2014-04-20, 00:31:05,VALID,917.115,VALID,0,VALID,92.7846,VALID,0,VALID,19.5078,VALID,138,VALID,0.875391,
2014-04-20, 00:32:05,VALID,917.071,VALID,0,VALID,92.9218,VALID,0,VALID,19.4883,VALID,139,VALID,1.11055,
2014-04-20, 00:33:05,VALID,917.038,VALID,0,VALID,93.2115,VALID,0,VALID,19.5288,VALID,139,VALID,1.11016,
2014-04-20, 00:34:05,VALID,916.994,VALID,0,VALID,93.1276,VALID,0,VALID,19.5483,VALID,139,VALID,1.26758,
2014-04-20, 00:35:05,VALID,916.964,VALID,0,VALID,93.0209,VALID,0,VALID,19.5483,VALID,139,VALID,1.31719,
2014-04-20, 00:36:05,VALID,916.927,VALID,0,VALID,93.059,VALID,0,VALID,19.5678,VALID,139,VALID,1.12383,
2014-04-20, 00:37:05,VALID,916.901,VALID,0,VALID,92.9142,VALID,0,VALID,19.5483,VALID,141,VALID,1.25195,
2014-04-20, 00:38:05,VALID,916.862,VALID,0,VALID,92.8151,VALID,0,VALID,19.5078,VALID,150,VALID,1.09336,
2014-04-20, 00:39:05,VALID,916.833,VALID,0,VALID,92.8761,VALID,0,VALID,19.5078,VALID,146,VALID,1.12773,
2014-04-20, 00:40:05,VALID,916.802,VALID,0,VALID,92.9371,VALID,0,VALID,19.4688,VALID,151,VALID,0.899219,
2014-04-20, 00:41:05,VALID,916.819,VALID,0,VALID,93.0972,VALID,0,VALID,19.4688,VALID,151,VALID,0.730078,
2014-04-20, 00:42:05,VALID,916.799,VALID,0,VALID,93.2725,VALID,0,VALID,19.4493,VALID,150,VALID,0.848828,
2014-04-20, 00:43:05,VALID,916.786,VALID,0,VALID,93.4097,VALID,0,VALID,19.4493,VALID,149,VALID,0.792969,
2014-04-20, 00:44:05,VALID,916.757,VALID,0,VALID,93.5393,VALID,0,VALID,19.4118,VALID,149,VALID,0.334766,
2014-04-20, 00:45:05,VALID,916.711,VALID,0,VALID,93.6842,VALID,0,VALID,19.3713,VALID,149,VALID,0.28125,
2014-04-20, 00:46:05,VALID,916.692,VALID,0,VALID,93.707,VALID,0,VALID,19.3323,VALID,149,VALID,0.453125,
2014-04-20, 00:47:05,VALID,916.672,VALID,0,VALID,93.6613,VALID,0,VALID,19.3143,VALID,149,VALID,0.204297,
2014-04-20, 00:48:05,VALID,916.673,VALID,0,VALID,93.707,VALID,0,VALID,19.2348,VALID,149,VALID,0.274609,
2014-04-20, 00:49:05,VALID,916.647,VALID,0,VALID,93.9434,VALID,0,VALID,19.1958,VALID,149,VALID,0.575,
2014-04-20, 00:50:05,VALID,916.688,VALID,0,VALID,94.1416,VALID,0,VALID,19.1973,VALID,149,VALID,0.403125,
2014-04-20, 00:51:05,VALID,916.628,VALID,0,VALID,94.2864,VALID,0,VALID,19.1778,VALID,149,VALID,0.394531,
2014-04-20, 00:52:05,VALID,916.653,VALID,0,VALID,94.3703,VALID,0,VALID,19.1583,VALID,149,VALID,0.675781,
2014-04-20, 00:53:05,VALID,916.61,VALID,0,VALID,94.4465,VALID,0,VALID,19.1778,VALID,149,VALID,0.640625,
2014-04-20, 00:54:05,VALID,916.617,VALID,0,VALID,94.4617,VALID,0,VALID,19.1359,VALID,149,VALID,0.662109,
2014-04-20, 00:55:05,VALID,916.612,VALID,0,VALID,94.4236,VALID,0,VALID,19.1973,VALID,149,VALID,0.749219,
2014-04-20, 00:56:05,VALID,916.625,VALID,0,VALID,94.3093,VALID,0,VALID,19.1778,VALID,146,VALID,1.26836,
2014-04-20, 00:57:05,VALID,916.609,VALID,0,VALID,94.3626,VALID,0,VALID,19.1778,VALID,144,VALID,1.06172,
2014-04-20, 00:58:05,VALID,916.614,VALID,0,VALID,94.3398,VALID,0,VALID,19.1778,VALID,144,VALID,0.983984,
2014-04-20, 00:59:05,VALID,916.602,VALID,0,VALID,94.3169,VALID,0,VALID,19.1763,VALID,144,VALID,0.844141,
2014-04-20, 01:00:05,VALID,916.59,VALID,0,VALID,94.3321,VALID,0,VALID,19.1973,VALID,144,VALID,0.405469,
2014-04-20, 01:01:05,VALID,916.551,VALID,0,VALID,94.294,VALID,0,VALID,19.1778,VALID,144,VALID,0.566016,
2014-04-20, 01:02:05,VALID,916.513,VALID,0,VALID,94.3321,VALID,0,VALID,19.1973,VALID,144,VALID,0.33125,
2014-04-20, 01:03:05,VALID,916.489,VALID,0,VALID,94.2788,VALID,0,VALID,19.1763,VALID,144,VALID,0,
2014-04-20, 01:04:05,VALID,916.469,VALID,0,VALID,94.2026,VALID,0,VALID,19.1973,VALID,144,VALID,0,
2014-04-20, 01:05:05,VALID,916.481,VALID,0,VALID,94.1721,VALID,0,VALID,19.1763,VALID,144,VALID,0,
2014-04-20, 01:06:05,VALID,916.462,VALID,0,VALID,94.2254,VALID,0,VALID,19.1973,VALID,144,VALID,0.462109,
2014-04-20, 01:07:05,VALID,916.471,VALID,0,VALID,93.9891,VALID,0,VALID,19.1373,VALID,144,VALID,0.784766,
2014-04-20, 01:08:05,VALID,916.498,VALID,0,VALID,93.7756,VALID,0,VALID,19.1193,VALID,144,VALID,1.06211,
2014-04-20, 01:09:05,VALID,916.509,VALID,0,VALID,93.7833,VALID,0,VALID,19.0218,VALID,144,VALID,1.08789,
2014-04-20, 01:10:05,VALID,916.522,VALID,0,VALID,94.4389,VALID,0,VALID,19.0203,VALID,79,VALID,1.41172,
2014-04-20, 01:11:05,VALID,916.502,VALID,0,VALID,94.5075,VALID,0,VALID,19.0218,VALID,76,VALID,1.33164,
2014-04-20, 01:12:05,VALID,916.536,VALID,0,VALID,94.7362,VALID,0,VALID,19.0803,VALID,64,VALID,1.45391,
2014-04-20, 01:13:05,VALID,916.567,VALID,0,VALID,94.8353,VALID,0,VALID,19.0998,VALID,64,VALID,1.40391,
2014-04-20, 01:14:05,VALID,916.57,VALID,0,VALID,94.9496,VALID,0,VALID,19.0998,VALID,64,VALID,1.22148,
2014-04-20, 01:15:05,VALID,916.613,VALID,0,VALID,95.0792,VALID,0,VALID,19.1178,VALID,64,VALID,1.29414,
2014-04-20, 01:16:05,VALID,916.615,VALID,0,VALID,95.1707,VALID,0,VALID,19.1778,VALID,71,VALID,1.41133,
2014-04-20, 01:17:05,VALID,916.626,VALID,0,VALID,95.1707,VALID,0,VALID,19.1778,VALID,93,VALID,1.1125,
2014-04-20, 01:18:05,VALID,916.656,VALID,0,VALID,95.2088,VALID,0,VALID,19.1568,VALID,99,VALID,0.624609,
2014-04-20, 01:19:05,VALID,916.636,VALID,0,VALID,95.2393,VALID,0,VALID,19.1778,VALID,93,VALID,0.932031,
2014-04-20, 01:20:05,VALID,916.659,VALID,0,VALID,95.2698,VALID,0,VALID,19.1778,VALID,95,VALID,0.355078,
2014-04-20, 01:21:05,VALID,916.643,VALID,0,VALID,95.2775,VALID,0,VALID,19.1778,VALID,95,VALID,0.186328,
2014-04-20, 01:22:05,VALID,916.67,VALID,0,VALID,95.2698,VALID,0,VALID,19.1778,VALID,95,VALID,0.242188,
2014-04-20, 01:23:05,VALID,916.656,VALID,0,VALID,95.2775,VALID,0,VALID,19.1568,VALID,95,VALID,0.225391,
2014-04-20, 01:24:05,VALID,916.682,VALID,0,VALID,95.2622,VALID,0,VALID,19.1373,VALID,95,VALID,0.272656,
2014-04-20, 01:25:05,VALID,916.674,VALID,0,VALID,95.3156,VALID,0,VALID,19.1583,VALID,95,VALID,0.511719,
2014-04-20, 01:26:05,VALID,916.696,VALID,0,VALID,95.3994,VALID,0,VALID,19.2168,VALID,95,VALID,0.559375,
2014-04-20, 01:27:05,VALID,916.721,VALID,0,VALID,95.468,VALID,0,VALID,19.2558,VALID,95,VALID,0.331641,
2014-04-20, 01:28:05,VALID,916.707,VALID,0,VALID,95.4985,VALID,0,VALID,19.2948,VALID,82,VALID,0.428906,
2014-04-20, 01:29:05,VALID,916.708,VALID,0,VALID,95.4985,VALID,0,VALID,19.3143,VALID,82,VALID,0.469141,
2014-04-20, 01:30:05,VALID,916.675,VALID,0,VALID,95.5138,VALID,0,VALID,19.2933,VALID,82,VALID,0.154297,
2014-04-20, 01:31:05,VALID,916.696,VALID,0,VALID,95.4757,VALID,0,VALID,19.2738,VALID,82,VALID,0.00195313,
2014-04-20, 01:32:05,VALID,916.675,VALID,0,VALID,95.3232,VALID,0,VALID,19.2168,VALID,82,VALID,0.201172,
2014-04-20, 01:33:05,VALID,916.659,VALID,0,VALID,95.2927,VALID,0,VALID,19.1778,VALID,82,VALID,0,
2014-04-20, 01:34:05,VALID,916.681,VALID,0,VALID,95.2393,VALID,0,VALID,19.1373,VALID,82,VALID,0.03125,
2014-04-20, 01:35:05,VALID,916.679,VALID,0,VALID,95.3079,VALID,0,VALID,19.1568,VALID,82,VALID,0.338281,
2014-04-20, 01:36:05,VALID,916.668,VALID,0,VALID,95.3613,VALID,0,VALID,19.1568,VALID,82,VALID,0,
2014-04-20, 01:37:05,VALID,916.668,VALID,0,VALID,95.3994,VALID,0,VALID,19.1973,VALID,82,VALID,0,
2014-04-20, 01:38:05,VALID,916.673,VALID,0,VALID,95.4299,VALID,0,VALID,19.1568,VALID,82,VALID,0.402734,
2014-04-20, 01:39:05,VALID,916.65,VALID,0,VALID,95.468,VALID,0,VALID,19.2168,VALID,82,VALID,0.571484,
2014-04-20, 01:40:05,VALID,916.668,VALID,0,VALID,95.5367,VALID,0,VALID,19.2168,VALID,103,VALID,0.520312,
2014-04-20, 01:41:05,VALID,916.645,VALID,0,VALID,95.5519,VALID,0,VALID,19.1958,VALID,103,VALID,0.537891,
2014-04-20, 01:42:05,VALID,916.644,VALID,0,VALID,95.5976,VALID,0,VALID,19.2168,VALID,103,VALID,0.650781,
2014-04-20, 01:43:05,VALID,916.646,VALID,0,VALID,95.6357,VALID,0,VALID,19.2168,VALID,103,VALID,0.287109,
2014-04-20, 01:44:05,VALID,916.632,VALID,0,VALID,95.6891,VALID,0.107441,VALID,19.2348,VALID,103,VALID,0.190625,
2014-04-20, 01:45:05,VALID,916.635,VALID,0,VALID,95.7349,VALID,0.107441,VALID,19.2334,VALID,103,VALID,0.0785156,
2014-04-20, 01:46:05,VALID,916.659,VALID,0,VALID,95.7958,VALID,0,VALID,19.2918,VALID,103,VALID,0.470703,
2014-04-20, 01:47:05,VALID,916.677,VALID,0,VALID,95.8645,VALID,0.107441,VALID,19.3713,VALID,95,VALID,0.755469,
2014-04-20, 01:48:05,VALID,916.678,VALID,0,VALID,95.8568,VALID,0.107441,VALID,19.3323,VALID,83,VALID,0.590234,
2014-04-20, 01:49:05,VALID,916.704,VALID,0,VALID,95.7501,VALID,0.107441,VALID,19.1958,VALID,83,VALID,0.401953,
2014-04-20, 01:50:05,VALID,916.702,VALID,0,VALID,95.7349,VALID,0.107441,VALID,19.1359,VALID,82,VALID,0.455859,
2014-04-20, 01:51:05,VALID,916.706,VALID,0,VALID,95.7958,VALID,0.107441,VALID,19.2738,VALID,82,VALID,0.284766,
2014-04-20, 01:52:05,VALID,916.687,VALID,0,VALID,95.895,VALID,0.107441,VALID,19.3908,VALID,82,VALID,0.773438,
2014-04-20, 01:53:05,VALID,916.66,VALID,0,VALID,95.9331,VALID,0.107441,VALID,19.4298,VALID,82,VALID,0.677734,
2014-04-20, 01:54:05,VALID,916.665,VALID,0,VALID,95.9636,VALID,0.107441,VALID,19.4688,VALID,82,VALID,0.797266,
2014-04-20, 01:55:05,VALID,916.636,VALID,0,VALID,95.9864,VALID,0,VALID,19.5273,VALID,88,VALID,0.633984,
2014-04-20, 01:56:05,VALID,916.642,VALID,0,VALID,96.0245,VALID,0,VALID,19.5663,VALID,88,VALID,0.469922,
2014-04-20, 01:57:05,VALID,916.649,VALID,0,VALID,96.0245,VALID,0.107441,VALID,19.5858,VALID,88,VALID,0.310937,
2014-04-20, 01:58:05,VALID,916.659,VALID,0,VALID,96.0322,VALID,0,VALID,19.5453,VALID,88,VALID,0,
2014-04-20, 01:59:05,VALID,916.657,VALID,0,VALID,96.0245,VALID,0,VALID,19.5678,VALID,88,VALID,0,
2014-04-20, 02:00:05,VALID,916.667,VALID,0,VALID,96.0245,VALID,0,VALID,19.6098,VALID,88,VALID,0.071875,
2014-04-20, 02:01:05,VALID,916.698,VALID,0,VALID,96.0245,VALID,0,VALID,19.4673,VALID,90,VALID,0.490625,
2014-04-20, 02:02:05,VALID,916.721,VALID,0,VALID,96.0093,VALID,0,VALID,19.4478,VALID,108,VALID,0.190234,
2014-04-20, 02:03:05,VALID,916.745,VALID,0,VALID,96.0245,VALID,0,VALID,19.4913,VALID,108,VALID,0,
2014-04-20, 02:04:05,VALID,916.729,VALID,0,VALID,96.0245,VALID,0,VALID,19.4508,VALID,108,VALID,0,
2014-04-20, 02:05:05,VALID,916.783,VALID,0,VALID,96.0474,VALID,0,VALID,19.4508,VALID,108,VALID,0,
2014-04-20, 02:06:05,VALID,916.754,VALID,0,VALID,96.0474,VALID,0,VALID,19.4732,VALID,108,VALID,0,
2014-04-20, 02:07:05,VALID,916.737,VALID,0,VALID,96.0474,VALID,0,VALID,19.4313,VALID,108,VALID,0.105078,
2014-04-20, 02:08:05,VALID,916.748,VALID,0,VALID,96.0779,VALID,0,VALID,19.4313,VALID,108,VALID,0,
2014-04-20, 02:09:05,VALID,916.762,VALID,0,VALID,96.0703,VALID,0,VALID,19.4508,VALID,108,VALID,0,
2014-04-20, 02:10:05,VALID,916.759,VALID,0,VALID,96.0703,VALID,0,VALID,19.4298,VALID,108,VALID,0,
2014-04-20, 02:11:05,VALID,916.737,VALID,0,VALID,96.0703,VALID,0,VALID,19.4118,VALID,108,VALID,0,
2014-04-20, 02:12:05,VALID,916.737,VALID,0,VALID,96.0779,VALID,0,VALID,19.3923,VALID,108,VALID,0,
2014-04-20, 02:13:05,VALID,916.723,VALID,0,VALID,96.0627,VALID,0,VALID,19.3923,VALID,108,VALID,0.161719,
2014-04-20, 02:14:05,VALID,916.766,VALID,0,VALID,96.0932,VALID,0,VALID,19.4103,VALID,108,VALID,0.205859,
2014-04-20, 02:15:05,VALID,916.78,VALID,0,VALID,96.1084,VALID,0,VALID,19.4298,VALID,108,VALID,0.216016,
2014-04-20, 02:16:05,VALID,916.821,VALID,0,VALID,96.0932,VALID,0,VALID,19.4103,VALID,108,VALID,0.374609,
2014-04-20, 02:17:05,VALID,916.822,VALID,0,VALID,96.1084,VALID,0.107441,VALID,19.3908,VALID,108,VALID,0.01875,
2014-04-20, 02:18:05,VALID,916.841,VALID,0,VALID,96.1008,VALID,0,VALID,19.4493,VALID,108,VALID,0,
2014-04-20, 02:19:05,VALID,916.816,VALID,0,VALID,96.1313,VALID,0.107441,VALID,19.5078,VALID,108,VALID,0,
2014-04-20, 02:20:05,VALID,916.84,VALID,0,VALID,96.1618,VALID,0.107441,VALID,19.5078,VALID,108,VALID,0,
2014-04-20, 02:21:05,VALID,916.82,VALID,0,VALID,96.1846,VALID,0,VALID,19.5078,VALID,108,VALID,0,
2014-04-20, 02:22:05,VALID,916.823,VALID,0,VALID,96.1846,VALID,0.107441,VALID,19.5273,VALID,108,VALID,0,
2014-04-20, 02:23:05,VALID,916.813,VALID,0,VALID,96.1923,VALID,0.107441,VALID,19.5468,VALID,108,VALID,0,
2014-04-20, 02:24:05,VALID,916.787,VALID,0,VALID,96.1923,VALID,0.107441,VALID,19.5663,VALID,108,VALID,0,
2014-04-20, 02:25:05,VALID,916.802,VALID,0,VALID,96.1999,VALID,0.107441,VALID,19.6053,VALID,108,VALID,0,
2014-04-20, 02:26:05,VALID,916.791,VALID,0,VALID,96.238,VALID,0,VALID,19.6248,VALID,108,VALID,0,
2014-04-20, 02:27:05,VALID,916.802,VALID,0,VALID,96.238,VALID,0,VALID,19.6638,VALID,108,VALID,0,
2014-04-20, 02:28:05,VALID,916.802,VALID,0,VALID,96.2304,VALID,0,VALID,19.6833,VALID,108,VALID,0,
2014-04-20, 02:29:05,VALID,916.781,VALID,0,VALID,96.2533,VALID,0,VALID,19.7043,VALID,108,VALID,0,
2014-04-20, 02:30:05,VALID,916.802,VALID,0,VALID,96.2761,VALID,0,VALID,19.7043,VALID,108,VALID,0,
2014-04-20, 02:31:05,VALID,916.777,VALID,0,VALID,96.2304,VALID,0,VALID,19.7043,VALID,108,VALID,0,
2014-04-20, 02:32:05,VALID,916.763,VALID,0,VALID,96.2533,VALID,0,VALID,19.7043,VALID,108,VALID,0,
2014-04-20, 02:33:05,VALID,916.72,VALID,0,VALID,96.2685,VALID,0,VALID,19.6848,VALID,108,VALID,0,
2014-04-20, 02:34:05,VALID,916.709,VALID,0,VALID,96.2685,VALID,0,VALID,19.6848,VALID,108,VALID,0,
2014-04-20, 02:35:05,VALID,916.688,VALID,0,VALID,96.2685,VALID,0,VALID,19.7043,VALID,108,VALID,0,
2014-04-20, 02:36:05,VALID,916.664,VALID,0,VALID,96.2685,VALID,0,VALID,19.7043,VALID,108,VALID,0,
2014-04-20, 02:37:05,VALID,916.703,VALID,0,VALID,96.2837,VALID,0,VALID,19.6833,VALID,108,VALID,0,
2014-04-20, 02:38:05,VALID,916.638,VALID,0,VALID,96.2914,VALID,0,VALID,19.7238,VALID,108,VALID,0,
2014-04-20, 02:39:05,VALID,916.637,VALID,0,VALID,96.2685,VALID,0,VALID,19.7043,VALID,108,VALID,0,
2014-04-20, 02:40:05,VALID,916.652,VALID,0,VALID,96.2837,VALID,0,VALID,19.6638,VALID,108,VALID,0.260547,
2014-04-20, 02:41:05,VALID,916.621,VALID,0,VALID,96.2685,VALID,0,VALID,19.6248,VALID,108,VALID,0.558203,
2014-04-20, 02:42:05,VALID,916.625,VALID,0,VALID,96.2761,VALID,0,VALID,19.5858,VALID,107,VALID,0.711719,
2014-04-20, 02:43:05,VALID,916.623,VALID,0,VALID,96.2685,VALID,0,VALID,19.5483,VALID,98,VALID,0.850391,
2014-04-20, 02:44:05,VALID,916.57,VALID,0,VALID,96.2609,VALID,0,VALID,19.5678,VALID,79,VALID,0.809375,
2014-04-20, 02:45:05,VALID,916.562,VALID,0,VALID,96.2761,VALID,0,VALID,19.5678,VALID,79,VALID,0.849609,
2014-04-20, 02:46:05,VALID,916.531,VALID,0,VALID,96.2685,VALID,0,VALID,19.5288,VALID,79,VALID,0.821875,
2014-04-20, 02:47:05,VALID,916.496,VALID,0,VALID,96.2761,VALID,0,VALID,19.5093,VALID,79,VALID,0.699219,
2014-04-20, 02:48:05,VALID,916.472,VALID,0,VALID,96.299,VALID,0,VALID,19.5093,VALID,79,VALID,0.682813,
2014-04-20, 02:49:05,VALID,916.44,VALID,0,VALID,96.3142,VALID,0,VALID,19.4508,VALID,79,VALID,0.970312,
2014-04-20, 02:50:05,VALID,916.416,VALID,0,VALID,96.2914,VALID,0,VALID,19.4313,VALID,79,VALID,0.916797,
2014-04-20, 02:51:05,VALID,916.4,VALID,0,VALID,96.2914,VALID,0,VALID,19.4118,VALID,75,VALID,1.26211,
2014-04-20, 02:52:05,VALID,916.39,VALID,0,VALID,96.3066,VALID,0,VALID,19.3923,VALID,66,VALID,1.17617,
2014-04-20, 02:53:05,VALID,916.432,VALID,0,VALID,96.3219,VALID,0,VALID,19.3728,VALID,66,VALID,0.962891,
2014-04-20, 02:54:05,VALID,916.463,VALID,0,VALID,96.3295,VALID,0,VALID,19.3518,VALID,66,VALID,0.715625,
2014-04-20, 02:55:05,VALID,916.45,VALID,0,VALID,96.3295,VALID,0,VALID,19.3533,VALID,66,VALID,1.01719,
2014-04-20, 02:56:05,VALID,916.411,VALID,0,VALID,96.3295,VALID,0,VALID,19.3338,VALID,66,VALID,0.875781,
2014-04-20, 02:57:05,VALID,916.411,VALID,0,VALID,96.3524,VALID,0,VALID,19.3143,VALID,67,VALID,0.575391,
2014-04-20, 02:58:05,VALID,916.396,VALID,0,VALID,96.3447,VALID,0,VALID,19.3143,VALID,68,VALID,0.580078,
2014-04-20, 02:59:05,VALID,916.344,VALID,0,VALID,96.3829,VALID,0,VALID,19.2738,VALID,69,VALID,0.821094,
2014-04-20, 03:00:05,VALID,916.336,VALID,0,VALID,96.3981,VALID,0,VALID,19.2543,VALID,68,VALID,0.6625,
2014-04-20, 03:01:05,VALID,916.336,VALID,0,VALID,96.3676,VALID,0,VALID,19.2558,VALID,68,VALID,0.519531,
2014-04-20, 03:02:05,VALID,916.333,VALID,0,VALID,96.4057,VALID,0,VALID,19.2558,VALID,69,VALID,0.367969,
2014-04-20, 03:03:05,VALID,916.353,VALID,0,VALID,96.4286,VALID,0,VALID,19.2558,VALID,82,VALID,0.736328,
2014-04-20, 03:04:05,VALID,916.347,VALID,0,VALID,96.3829,VALID,0,VALID,19.2363,VALID,82,VALID,0.799609,
2014-04-20, 03:05:05,VALID,916.311,VALID,0,VALID,96.421,VALID,0,VALID,19.2363,VALID,82,VALID,0.321484,
2014-04-20, 03:06:05,VALID,916.325,VALID,0,VALID,96.4362,VALID,0,VALID,19.2558,VALID,82,VALID,0.209375,
2014-04-20, 03:07:05,VALID,916.333,VALID,0,VALID,96.4286,VALID,0,VALID,19.2558,VALID,82,VALID,0.554297,
2014-04-20, 03:08:04,VALID,916.313,VALID,0,VALID,96.4286,VALID,0,VALID,19.2558,VALID,82,VALID,0.382813,
2014-04-20, 03:09:04,VALID,916.294,VALID,0,VALID,96.4515,VALID,0,VALID,19.2363,VALID,82,VALID,0.394141,
2014-04-20, 03:10:04,VALID,916.312,VALID,0,VALID,96.4515,VALID,0,VALID,19.2363,VALID,82,VALID,0.578516,
2014-04-20, 03:11:04,VALID,916.301,VALID,0,VALID,96.4438,VALID,0,VALID,19.1973,VALID,82,VALID,0.551562,
2014-04-20, 03:12:04,VALID,916.269,VALID,0,VALID,96.4591,VALID,0,VALID,19.1568,VALID,82,VALID,0.676562,
2014-04-20, 03:13:04,VALID,916.264,VALID,0,VALID,96.4667,VALID,0,VALID,19.1583,VALID,82,VALID,0.670703,
2014-04-20, 03:14:04,VALID,916.28,VALID,0,VALID,96.4743,VALID,0,VALID,19.1583,VALID,82,VALID,0.850781,
2014-04-20, 03:15:04,VALID,916.277,VALID,0,VALID,96.4819,VALID,0,VALID,19.1373,VALID,85,VALID,0.787109,
2014-04-20, 03:16:04,VALID,916.273,VALID,0,VALID,96.4819,VALID,0,VALID,19.1373,VALID,108,VALID,0.462891,
2014-04-20, 03:17:04,VALID,916.289,VALID,0,VALID,96.4972,VALID,0,VALID,19.1568,VALID,108,VALID,0.716016,
2014-04-20, 03:18:04,VALID,916.261,VALID,0,VALID,96.4819,VALID,0,VALID,19.1973,VALID,108,VALID,0.643359,
2014-04-20, 03:19:04,VALID,916.239,VALID,0,VALID,96.5048,VALID,0,VALID,19.1763,VALID,108,VALID,0.623828,
2014-04-20, 03:20:04,VALID,916.255,VALID,0,VALID,96.5048,VALID,0,VALID,19.1973,VALID,108,VALID,0.514844,
2014-04-20, 03:21:04,VALID,916.263,VALID,0,VALID,96.4972,VALID,0,VALID,19.1973,VALID,108,VALID,0.473047,
2014-04-20, 03:22:04,VALID,916.258,VALID,0,VALID,96.5124,VALID,0,VALID,19.1973,VALID,108,VALID,0.368359,
2014-04-20, 03:23:04,VALID,916.227,VALID,0,VALID,96.5124,VALID,0,VALID,19.1778,VALID,108,VALID,0.637109,
2014-04-20, 03:24:04,VALID,916.256,VALID,0,VALID,96.5124,VALID,0,VALID,19.1178,VALID,108,VALID,0.758203,
2014-04-20, 03:25:04,VALID,916.251,VALID,0,VALID,96.5353,VALID,0,VALID,19.1388,VALID,108,VALID,0.752344,
2014-04-20, 03:26:04,VALID,916.278,VALID,0,VALID,96.5277,VALID,0,VALID,19.1388,VALID,108,VALID,0.797656,
2014-04-20, 03:27:04,VALID,916.293,VALID,0,VALID,96.5277,VALID,0,VALID,19.0983,VALID,108,VALID,0.857813,
2014-04-20, 03:28:04,VALID,916.282,VALID,0,VALID,96.5201,VALID,0,VALID,19.1388,VALID,108,VALID,0.524219,
2014-04-20, 03:29:04,VALID,916.284,VALID,0,VALID,96.5429,VALID,0,VALID,19.1193,VALID,108,VALID,0.917188,
2014-04-20, 03:30:04,VALID,916.307,VALID,0,VALID,96.5506,VALID,0,VALID,19.1193,VALID,108,VALID,0.604688,
2014-04-20, 03:31:04,VALID,916.29,VALID,0,VALID,96.5506,VALID,0,VALID,19.1388,VALID,107,VALID,0.634375,
2014-04-20, 03:32:04,VALID,916.267,VALID,0,VALID,96.5506,VALID,0,VALID,19.1388,VALID,107,VALID,0.434766,
2014-04-20, 03:33:04,VALID,916.283,VALID,0,VALID,96.5582,VALID,0,VALID,19.1388,VALID,108,VALID,0.824219,
2014-04-20, 03:34:04,VALID,916.322,VALID,0,VALID,96.5582,VALID,0,VALID,19.1583,VALID,108,VALID,1.00977,
2014-04-20, 03:35:04,VALID,916.308,VALID,0,VALID,96.5811,VALID,0,VALID,19.1583,VALID,108,VALID,0.982813,
2014-04-20, 03:36:04,VALID,916.263,VALID,0,VALID,96.5658,VALID,0,VALID,19.1388,VALID,108,VALID,0.542188,
2014-04-20, 03:37:04,VALID,916.24,VALID,0,VALID,96.5887,VALID,0,VALID,19.1178,VALID,108,VALID,0.630859,
2014-04-20, 03:38:04,VALID,916.248,VALID,0,VALID,96.5734,VALID,0,VALID,19.1583,VALID,108,VALID,0.896094,
2014-04-20, 03:39:04,VALID,916.247,VALID,0,VALID,96.5811,VALID,0,VALID,19.1373,VALID,107,VALID,0.591016,
2014-04-20, 03:40:04,VALID,916.254,VALID,0,VALID,96.5811,VALID,0,VALID,19.1778,VALID,108,VALID,0.495313,
2014-04-20, 03:41:04,VALID,916.266,VALID,0,VALID,96.5963,VALID,0,VALID,19.2168,VALID,108,VALID,0.550781,
2014-04-20, 03:42:04,VALID,916.228,VALID,0,VALID,96.5811,VALID,0,VALID,19.2168,VALID,108,VALID,0.653125,
2014-04-20, 03:43:04,VALID,916.224,VALID,0,VALID,96.6192,VALID,0,VALID,19.1958,VALID,108,VALID,0.705469,
2014-04-20, 03:44:04,VALID,916.205,VALID,0,VALID,96.5963,VALID,0,VALID,19.2363,VALID,108,VALID,0.764844,
2014-04-20, 03:45:04,VALID,916.19,VALID,0,VALID,96.6115,VALID,0,VALID,19.2363,VALID,108,VALID,0.514453,
2014-04-20, 03:46:04,VALID,916.178,VALID,0,VALID,96.5963,VALID,0,VALID,19.2153,VALID,108,VALID,0.313672,